Hourly Data Report for November 21, 2019

SHEARWATER RCS
NOVA SCOTIA
Current Station Operator: ECCC - MSC

44°37'47.000" N
63°30'48.000" W
24.00 m
8205092
71264
AAW

Download Data

Hourly Data (November 2019)
Hourly Data Report for November 21, 2019
TIME
LST
Temp Definition
°C
Dew Point Definition
°C
Rel Hum Definition
%
Precip. Amount Definition
mm

Wind Dir Definition
10's deg

Wind Spd Definition
km/h
Visibility Definition
km
Stn Press Definition
kPa
Hmdx Definition


Wind Chill Definition


Weather Definition


00:00 3.8 2.1 89 0.0 35 13   100.45     LegendNANA
01:00 3.9 2.3 89 0.0 35 17   100.42     LegendNANA
02:00 4.0 2.2 88 0.0 36 18   100.43     LegendNANA
03:00 4.1 2.1 87 0.0 36 20   100.40     LegendNANA
04:00 4.2 2.1 86 0.0 36 20   100.40     LegendNANA
05:00 4.2 2.0 86 0.0 36 19   100.50     LegendNANA
06:00 4.2 2.1 86 0.0 36 18   100.57     LegendNANA
07:00 3.8 2.3 90 0.0 35 17   100.59     LegendNANA
08:00 3.8 2.2 89 0.0 35 23   100.57     LegendNANA
09:00 4.2 1.9 85 0.0 36 25   100.56     LegendNANA
10:00 4.9 1.6 79 0.0 36 23   100.63     LegendNANA
11:00 5.0 1.8 80 0.0 36 21   100.69     LegendNANA
12:00 5.1 1.5 77 0.0 35 27   100.66     LegendNANA
13:00 5.7 1.5 75 0.0 36 22   100.63     LegendNANA
14:00 5.6 1.6 76 0.0 35 20   100.65     LegendNANA
15:00 5.6 0.9 72 0.0 35 23   100.72     LegendNANA
16:00 4.7 1.1 77 0.0 33 16   100.79     LegendNANA
17:00 4.2 0.4 76 0.0 34 19   100.83     LegendNANA
18:00 3.8 0.3 78 0.0 34 21   100.93     LegendNANA
19:00 3.4 0.0 78 0.0 33 18   100.98     LegendNANA
20:00 2.3 -0.2 84 0.0 34 19   100.99     LegendNANA
21:00 2.4 -0.1 84 0.0 33 15   101.01     LegendNANA
22:00 2.3 -0.3 83 0.0 33 16   101.00     LegendNANA
23:00 1.8 -0.4 85 0.0 32 12   100.98     LegendNANA

Notes on Data Quality.

Legend

  • E = Estimated
  • M = Missing
  • NA = Not Available*
  • [empty] = Indicates an unobserved value
Date modified: